User: anonymous   Login
Location: Caltech
(34.1382°N, 118.1253°W)
Time: 00:57:12
(UTC-07:00)
Language:

Meteor 2-4 Rocket - Orbit

View from above orbital plane
View from above orbital plane
View from above satellite
View from above satellite

Ground track
Ground track

The orbit data is extracted from the following two-line orbital elements,

1 11289U 79021B   15243.04399550 -.00000019  00000-0 -16379-4 0  9992
2 11289 081.2437 084.2658 0074906 295.7157 063.6294 14.11511645878263
Epoch (UTC): 31 August 2015 01:03:21
Eccentricity: 0.0074906
inclination: 81.2437°
perigee height: 800 km
apogee height: 908 km
right ascension of ascending node: 84.2658°
argument of perigee: 295.7157°
revolutions per day: 14.11511645
mean anomaly at epoch: 63.6294°
orbit number at epoch: 87826

The dashed part of the orbit path shows where the satellite is in the earth's shadow,  

DLR